Wetbulb
53.76 49.64 47.68 49.73 51.34 51.03 50.38 49.80 49.74 52.22 53.91 52.37 51.84 52.61 54.09 56.28 56.69 56.76 57.34 59.05 60.10 61.16 66.96 70.32 71.94 72.20 72.37 73.54 76.21 75.40 76.16 76.76 76.98 74.39 72.97 72.79 71.72 73.33 73.51 74.42 72.11 71.80 72.06 70.64
51.50 49.26 51.77 52.42 52.26 50.77 50.49 49.16 49.48 51.34 52.91 52.28 51.52 51.06 53.52 55.09 55.12 56.24 56.79 58.21 59.78 61.73 64.84 69.48 72.41 73.35 74.11 74.29 75.26 77.17 77.92 78.87 77.29 76.07 75.45 75.07 73.80 73.42 73.91 71.89 71.67 71.49 71.23 70.67
50.43 52.45 53.88 51.79 50.29 49.41 49.87 49.36 49.27 49.24 51.93 53.01 51.49 49.56 52.12 54.42 55.78 56.89 58.16 60.09 61.07 63.14 63.69 69.68 72.06 73.59 74.78 75.66 76.92 77.26 78.72 79.54 77.69 79.45 78.73 77.30 77.31 74.67 72.34 70.08 69.87 70.20 69.93 69.20
51.72 54.87 52.68 51.10 50.04 50.38 47.60 51.53 50.61 49.89 48.69 45.04 51.26 43.92 52.42 53.96 54.70 56.62 57.45 58.99 60.97 63.67 66.47 70.43 71.93 73.43 74.57 74.73 76.40 76.91 77.22 78.61 78.59 78.51 76.42 75.13 72.44 70.42 71.77 69.55 69.92 68.91 68.62 67.88
49.46 51.16 50.80 49.96 50.54 52.04 49.19 51.79 50.83 50.87 48.95 48.50 48.57 46.41 49.54 54.06 53.56 55.37 57.15 59.43 61.63 62.87 66.78 70.06 70.81 72.53 73.32 74.55 74.80 76.48 76.73 76.71 77.36 76.50 76.94 73.60 73.69 72.40 71.85 69.43 68.36 67.61 68.16 68.27
51.29 54.06 52.69 51.80 53.13 52.75 52.82 51.09 50.93 51.06 48.99 43.67 47.61 47.07 47.29 50.41 54.03 56.29 58.65 61.63 63.59 63.81 64.84 68.04 71.84 72.25 72.60 73.25 74.17 74.67 75.43 75.47 75.92 75.27 75.90 73.98 72.87 72.52 69.95 67.79 67.25 66.92 65.76 64.70
50.64 50.61 52.84 53.08 50.18 52.87 52.15 49.58 43.19 42.91 43.45 42.86 50.43 47.19 49.68 54.95 55.84 56.55 57.09 58.35 62.21 64.19 64.67 67.00 69.73 70.17 71.77 71.85 72.40 73.18 72.87 71.71 72.75 73.39 73.74 73.55 74.31 72.90 70.38 68.56 67.60 66.13 64.36 62.82
47.31 46.41 51.62 53.24 51.13 49.34 50.85 50.23 44.71 40.08 41.45 44.18 50.84 46.67 50.07 55.81 57.38 57.72 58.18 58.61 59.36 59.76 61.30 65.11 69.75 70.35 70.35 70.59 72.21 72.42 70.48 69.84 70.62 70.96 71.38 72.60 72.06 70.59 69.55 69.48 67.62 65.58 64.76 61.67
48.02 48.43 53.18 52.65 53.26 52.23 49.53 46.97 52.00 48.47 48.48 44.52 46.79 50.48 54.39 56.57 55.84 56.54 56.82 57.81 59.70 61.63 63.68 63.95 70.20 70.31 69.78 70.92 72.00 71.52 69.48 68.93 69.50 69.88 69.65 69.19 70.18 70.24 68.41 66.28 65.98 63.28 62.49 60.96
52.05 47.30 52.75 53.02 52.60 52.36 50.20 51.73 46.30 47.98 41.13 39.84 44.86 46.88 49.17 52.79 54.88 55.88 56.66 57.92 60.30 62.07 65.09 66.56 69.70 69.95 70.35 71.59 71.94 71.34 69.31 69.06 68.39 68.52 68.10 68.19 68.59 66.18 64.89 64.27 64.01 62.68 62.48 61.12
52.78 50.94 49.68 52.90 51.18 49.32 49.64 48.37 49.04 50.16 48.37 42.61 41.87 46.25 53.82 55.40 56.50 57.37 57.77 57.77 58.52 60.09 65.91 66.81 68.45 70.02 70.20 71.51 70.60 71.28 68.99 68.77 67.48 67.70 67.99 66.93 64.98 64.72 64.25 63.50 62.86 60.62 61.86 61.51
54.62 52.04 47.50 49.37 53.98 54.81 52.48 50.54 51.81 45.76 45.92 48.46 47.46 46.29 56.54 58.04 56.36 57.64 56.60 57.62 58.33 59.78 64.66 66.87 68.77 69.22 69.64 70.68 70.04 70.16 70.02 68.50 67.63 67.62 66.30 64.60 64.60 63.74 63.52 62.39 62.14 62.88 61.50 61.22
53.32 51.06 45.37 46.69 50.39 53.29 51.53 52.58 52.58 54.14 54.16 48.27 44.67 46.47 56.05 57.44 57.66 57.34 56.85 58.21 59.41 60.81 60.90 66.00 68.49 68.67 69.27 70.11 69.64 69.08 68.69 67.45 67.16 65.88 64.41 64.73 64.00 62.69 62.93 63.14 63.20 62.53 61.24 60.63
54.20 51.63 49.06 44.96 48.22 51.12 50.03 52.11 53.15 52.80 48.90 48.53 48.32 49.98 53.53 56.63 54.22 56.93 59.62 60.51 59.67 60.87 61.82 66.68 68.66 69.33 69.55 70.01 69.23 68.42 67.10 67.48 66.15 64.40 63.99 63.40 63.23 62.79 63.20 63.72 63.01 62.10 61.58 60.69
52.37 46.63 48.90 49.19 50.12 50.22 49.68 49.58 50.56 50.08 50.92 48.00 49.94 49.85 53.47 56.55 57.47 58.17 59.45 60.61 60.85 63.08 61.95 66.27 68.35 69.27 69.19 69.86 68.50 67.67 66.82 66.94 65.37 63.64 63.17 63.00 63.18 63.97 64.03 62.91 61.77 61.59 61.59 60.53
53.64 46.72 48.47 46.38 48.87 48.51 46.97 48.89 49.53 49.76 49.99 49.63 49.95 50.56 55.22 57.13 58.02 56.93 57.84 62.15 62.78 64.41 65.39 66.16 68.99 68.98 68.99 68.91 67.46 66.61 66.53 65.64 65.00 63.70 62.67 63.26 63.27 63.35 62.94 62.25 61.71 61.54 60.79 59.90
50.60 48.18 46.36 42.87 47.74 47.02 43.66 47.08 48.47 49.06 50.31 49.86 47.82 52.57 55.84 55.75 57.24 57.71 61.70 62.13 62.66 64.05 65.61 66.43 69.65 69.49 69.95 69.45 67.63 66.27 65.22 64.00 63.64 63.24 63.02 63.37 63.36 62.23 62.00 61.66 60.93 60.57 59.76 60.20
48.37 47.51 46.28 42.22 44.72 36.80 46.74 51.22 50.86 49.86 50.64 51.73 52.15 53.23 54.87 57.84 61.00 61.30 61.41 61.40 62.60 64.19 65.58 66.71 68.14 70.89 70.63 69.88 67.32 64.78 63.57 63.05 62.96 62.96 62.81 63.03 62.38 61.74 61.51 61.24 60.14 59.39 60.27 59.84
50.49 47.66 42.57 39.87 40.43 44.21 46.63 49.16 49.18 48.38 49.45 53.02 53.42 55.36 56.70 58.48 59.19 58.87 60.74 61.89 63.36 64.85 66.19 67.65 68.97 71.80 70.96 68.04 65.12 63.09 62.46 63.36 62.72 62.29 62.58 62.22 61.55 60.82 60.20 59.40 59.37 60.77 60.16 59.65
49.93 50.91 44.60 41.57 37.60 36.23 46.55 51.18 53.05 53.78 45.68 55.90 56.40 56.20 56.95 57.72 52.98 54.33 58.77 60.77 62.30 65.03 66.42 67.25 68.57 71.06 67.86 65.57 64.21 61.83 62.38 62.10 62.42 62.64 62.66 62.43 60.91 61.24 59.35 59.39 59.93 59.85 59.35 57.54
44.73 44.77 41.46 40.21 38.46 42.38 49.32 51.14 52.51 43.63 47.56 55.71 55.02 55.94 55.97 53.45 54.32 57.58 59.29 59.42 61.14 64.50 65.95 67.14 68.97 65.92 65.88 64.81 63.03 61.27 62.30 61.31 63.98 63.86 62.25 61.01 59.29 59.25 59.96 60.33 59.92 59.17 57.77 57.39
42.85 41.79 41.78 41.90 39.24 36.53 52.63 51.04 47.53 54.45 56.31 55.66 54.28 55.30 55.06 55.53 55.22 55.39 56.51 57.35 59.03 61.27 64.54 66.43 65.60 64.69 65.23 64.43 63.15 61.63 61.44 63.41 62.73 61.46 59.97 57.20 58.08 58.54 58.08 58.65 57.60 57.86 57.17 55.74
41.41 45.13 42.85 45.05 44.19 50.78 53.82 55.11 57.55 57.54 55.09 54.23 53.11 54.85 55.06 53.80 53.70 54.03 55.25 56.84 58.40 59.31 64.41 65.80 64.90 63.41 63.17 63.20 62.69 61.67 61.05 61.75 60.59 59.38 58.67 57.71 58.81 58.82 58.01 56.99 56.78 55.49 56.84 56.35
47.96 50.61 46.22 47.13 49.86 50.15 52.94 55.45 54.66 54.38 54.32 54.26 53.66 53.36 53.14 51.94 52.86 53.83 55.22 56.90 57.68 58.27 64.09 64.66 64.23 62.36 61.76 62.13 62.29 60.37 60.39 60.88 59.78 58.93 57.92 56.94 56.51 56.39 55.68 56.81 55.68 56.62 54.87 53.87
45.45 46.66 44.96 45.31 48.37 50.21 51.28 52.48 52.35 51.90 52.34 51.73 52.40 52.37 51.70 51.63 51.31 53.16 54.69 56.02 57.24 58.41 64.03 64.19 63.38 61.94 60.63 58.87 59.16 59.70 59.97 59.67 58.46 58.20 56.95 55.62 54.50 54.32 56.40 56.87 55.22 55.80 57.78 51.50
46.43 45.55 42.48 42.50 48.83 48.29 48.98 51.11 51.34 50.42 50.73 51.18 51.10 51.35 52.19 52.20 51.74 53.53 53.85 56.02 57.46 58.47 63.47 62.79 62.43 59.24 58.57 57.49 56.87 58.07 59.16 58.36 56.95 55.45 54.88 51.38 52.14 53.58 54.27 53.43 54.99 46.07 44.84 41.93
MSLP
1006.09 1005.85 1004.99 1004.21 1003.72 1003.21 1002.41 1001.88 1001.35 1000.44 1000.07 1000.05 1000.18 1000.26 999.95 999.52 999.15 998.88 998.84 998.98 999.29 999.71 1000.12 1001.11 1002.35 1003.36 1004.61 1005.69 1006.61 1007.39 1007.97 1008.59 1009.25 1009.89 1010.54 1011.03 1011.24 1011.52 1011.92 1012.17 1012.83 1013.55 1014.00 1014.47
1005.65 1004.67 1004.32 1003.72 1003.24 1002.93 1002.67 1002.46 1002.13 1001.50 1001.02 1000.91 1000.73 1000.49 1000.07 999.56 999.22 998.90 998.60 998.65 998.57 998.87 999.36 1000.68 1001.99 1003.05 1004.05 1005.29 1006.21 1006.94 1007.66 1008.26 1008.86 1009.38 1009.83 1010.33 1010.59 1011.05 1011.64 1012.39 1013.13 1013.70 1014.13 1014.61
1004.64 1003.23 1003.37 1003.45 1003.20 1003.23 1003.24 1003.02 1002.48 1001.96 1001.41 1001.22 1001.21 1000.55 999.66 998.92 998.52 998.26 998.23 998.04 998.23 998.75 999.35 1000.56 1001.87 1002.93 1003.92 1005.01 1005.96 1006.84 1007.42 1008.00 1008.75 1009.12 1009.63 1010.08 1010.35 1010.85 1011.59 1012.68 1013.32 1013.91 1014.25 1014.58
1004.19 1003.35 1003.36 1003.43 1003.51 1003.72 1003.17 1002.91 1002.64 1002.39 1002.34 1001.98 1001.18 999.79 998.34 997.60 997.63 997.44 997.68 997.72 997.84 998.69 999.22 1000.78 1002.19 1003.34 1004.30 1005.24 1006.14 1006.81 1007.49 1008.17 1008.71 1009.12 1009.54 1009.94 1010.36 1010.93 1011.55 1012.44 1013.12 1013.85 1014.30 1014.74
1003.88 1003.13 1003.10 1003.07 1003.24 1003.40 1003.35 1003.26 1002.95 1002.96 1002.93 1002.53 1001.54 1000.36 998.60 997.54 996.87 996.92 997.08 997.00 997.63 998.47 999.59 1001.15 1002.30 1003.47 1004.61 1005.50 1006.23 1006.92 1007.59 1008.26 1008.74 1009.32 1009.58 1010.06 1010.53 1010.99 1011.43 1012.41 1013.19 1013.92 1014.44 1014.54
1003.72 1003.13 1002.90 1003.08 1002.98 1003.15 1003.40 1003.56 1003.49 1003.60 1003.35 1002.51 1001.40 1000.42 998.72 997.39 996.76 996.34 996.89 997.25 998.00 998.88 999.60 1000.54 1001.77 1003.01 1004.15 1005.14 1005.97 1007.00 1007.82 1008.46 1009.02 1009.40 1009.70 1010.19 1010.55 1010.84 1011.49 1012.58 1013.21 1013.67 1014.29 1014.68
1003.30 1002.83 1002.64 1002.84 1003.20 1003.08 1003.49 1003.71 1003.63 1003.27 1002.53 1001.32 1000.08 999.51 998.21 997.24 996.92 997.06 997.25 997.70 998.10 998.77 999.59 1000.59 1001.98 1003.26 1004.35 1005.17 1006.06 1007.13 1008.10 1008.77 1009.21 1009.63 1009.88 1010.28 1010.54 1010.90 1011.48 1012.28 1012.90 1013.26 1013.74 1014.22
1002.65 1001.64 1001.67 1002.02 1002.64 1003.02 1002.92 1003.40 1003.53 1003.08 1002.32 1001.19 1000.11 998.19 997.53 997.09 996.96 997.42 997.58 997.91 998.45 998.71 999.11 999.77 1001.14 1003.21 1004.38 1005.46 1006.17 1007.20 1008.35 1009.19 1009.60 1009.85 1010.19 1010.53 1010.92 1011.29 1011.80 1012.37 1012.68 1013.15 1013.46 1014.17
1003.26 1002.14 1001.72 1002.23 1002.30 1002.82 1003.02 1003.10 1003.21 1003.22 1003.37 1002.54 1001.04 999.22 998.42 997.81 997.73 997.92 997.80 997.97 998.35 998.72 999.41 1000.41 1001.93 1003.22 1004.12 1004.99 1006.00 1007.24 1008.52 1009.47 1010.07 1010.31 1010.64 1010.95 1011.22 1011.50 1011.83 1012.62 1013.10 1013.51 1013.79 1014.20
1004.16 1003.63 1002.91 1002.39 1003.00 1003.04 1003.05 1003.08 1003.17 1003.02 1003.49 1002.94 1001.41 1000.02 999.33 998.71 998.78 998.31 998.08 998.12 998.39 998.61 999.50 1000.54 1001.91 1003.31 1004.06 1004.77 1005.99 1007.05 1008.27 1009.22 1010.20 1010.53 1010.80 1011.13 1011.33 1011.76 1012.24 1012.83 1013.45 1013.70 1014.06 1014.31
1005.43 1005.18 1004.31 1003.29 1002.38 1002.38 1002.40 1002.67 1003.11 1003.30 1003.58 1003.23 1002.29 1000.91 1000.01 1000.15 1000.43 999.81 999.10 998.87 998.74 999.00 999.62 1000.53 1001.38 1002.89 1004.14 1004.79 1005.99 1006.99 1008.13 1009.13 1010.05 1010.59 1010.91 1011.33 1011.79 1012.23 1012.76 1013.18 1013.42 1013.73 1014.04 1014.25
1006.11 1005.84 1004.95 1004.12 1002.99 1002.30 1002.14 1002.29 1002.46 1003.05 1003.44 1003.28 1002.75 1001.34 1000.35 1000.23 999.57 999.52 999.48 999.30 999.21 999.22 999.65 1000.09 1001.26 1002.75 1003.95 1004.84 1005.89 1006.98 1007.94 1008.86 1009.72 1010.33 1010.94 1011.57 1012.03 1012.52 1013.01 1013.38 1013.64 1013.75 1013.96 1014.05
1008.77 1006.98 1006.26 1005.01 1003.96 1002.84 1002.39 1002.22 1002.38 1002.87 1003.39 1003.33 1002.85 1001.65 1000.66 1000.26 1000.17 999.85 999.67 999.59 999.62 999.62 999.50 1000.12 1001.27 1002.89 1004.01 1004.97 1006.10 1007.07 1008.02 1008.82 1009.59 1010.32 1011.10 1011.70 1012.20 1012.70 1013.08 1013.35 1013.49 1013.63 1013.77 1013.83
1009.97 1008.86 1007.71 1006.32 1004.40 1004.27 1003.60 1003.02 1002.68 1002.93 1003.10 1002.62 1002.15 1001.53 1001.02 1000.87 1001.27 1001.57 999.98 1000.17 1000.22 1000.12 999.95 1000.25 1001.20 1002.84 1004.13 1005.02 1006.12 1007.05 1008.05 1008.92 1009.72 1010.48 1011.20 1011.86 1012.34 1012.69 1012.90 1013.10 1013.40 1013.52 1013.62 1013.66
1009.99 1009.60 1008.98 1007.82 1006.57 1005.31 1004.55 1003.80 1003.30 1002.92 1002.70 1002.35 1001.91 1001.37 1001.06 1001.00 1001.06 1000.84 1000.61 1000.46 1000.23 1000.19 999.88 999.93 1000.82 1002.25 1003.62 1004.82 1006.01 1007.06 1008.12 1008.96 1009.67 1010.49 1011.24 1011.96 1012.48 1012.64 1012.80 1013.14 1013.30 1013.27 1013.35 1013.52
1009.80 1009.83 1009.75 1008.69 1007.85 1006.38 1004.80 1004.23 1003.51 1003.19 1002.84 1002.28 1001.93 1001.41 1001.55 1001.35 1001.27 1001.15 1000.88 1001.00 1001.03 1001.11 1000.99 1001.10 1000.22 1001.68 1003.03 1004.37 1005.81 1007.09 1008.15 1009.03 1009.84 1010.63 1011.35 1011.77 1012.10 1012.47 1012.70 1012.88 1013.10 1013.10 1013.18 1013.27
1010.73 1010.75 1010.64 1009.04 1008.44 1006.81 1004.85 1004.38 1003.44 1002.94 1002.70 1002.24 1001.51 1001.36 1001.41 1001.20 1001.19 1001.36 1001.72 1002.36 1002.43 1002.35 1002.12 1001.73 1000.85 1001.50 1002.72 1004.10 1005.56 1007.06 1008.14 1009.23 1010.30 1010.97 1011.43 1011.69 1011.97 1012.30 1012.57 1012.82 1012.93 1012.92 1013.12 1013.23
1011.52 1011.67 1011.58 1010.26 1009.63 1007.07 1005.58 1004.44 1003.38 1002.65 1002.10 1001.71 1001.37 1001.36 1001.16 1001.82 1002.60 1003.02 1003.48 1003.63 1003.46 1003.38 1003.01 1002.62 1002.14 1001.91 1003.00 1004.28 1005.81 1007.23 1008.43 1009.50 1010.42 1011.00 1011.13 1011.34 1011.82 1012.12 1012.27 1012.52 1012.72 1012.85 1012.98 1013.06
1011.46 1011.77 1011.55 1010.82 1009.60 1007.20 1005.81 1004.69 1003.51 1002.80 1002.30 1002.05 1002.17 1002.36 1002.40 1002.67 1003.23 1004.50 1005.12 1004.78 1004.46 1004.17 1003.96 1003.55 1002.93 1002.62 1003.49 1004.87 1006.17 1007.38 1008.78 1009.78 1010.45 1010.83 1010.91 1011.04 1011.32 1011.76 1012.08 1012.44 1012.60 1012.67 1012.86 1012.90
1010.45 1011.23 1011.63 1011.10 1009.78 1007.77 1005.99 1004.56 1004.38 1003.12 1003.41 1004.25 1004.06 1004.15 1004.58 1004.65 1004.36 1005.65 1006.09 1005.62 1005.20 1004.68 1004.57 1004.30 1003.88 1003.51 1004.53 1005.57 1006.85 1007.88 1008.93 1009.89 1010.52 1010.74 1010.91 1011.14 1011.38 1011.82 1012.05 1012.41 1012.69 1012.87 1012.93 1012.83
1010.17 1010.50 1010.74 1010.74 1009.91 1008.63 1007.34 1005.64 1005.26 1005.22 1006.40 1006.32 1006.31 1006.23 1006.65 1007.13 1007.63 1007.37 1007.01 1006.64 1006.01 1005.20 1005.13 1004.88 1004.60 1005.26 1006.10 1006.70 1007.31 1008.20 1009.00 1009.92 1010.47 1010.69 1011.16 1011.57 1011.71 1012.24 1012.38 1012.57 1012.78 1012.85 1012.81 1012.54
1009.94 1010.04 1010.14 1010.44 1009.80 1008.83 1007.76 1006.58 1006.55 1007.14 1007.18 1007.27 1007.38 1007.52 1007.92 1008.22 1008.22 1007.97 1007.69 1007.25 1006.60 1005.80 1005.47 1005.96 1006.21 1006.50 1007.28 1007.67 1008.18 1008.99 1009.50 1009.97 1010.46 1011.03 1011.64 1012.03 1011.91 1012.43 1012.49 1012.55 1012.65 1012.52 1012.32 1012.06
1010.01 1010.03 1010.09 1010.16 1009.66 1008.32 1008.68 1007.83 1007.45 1007.35 1007.41 1007.57 1008.09 1008.37 1008.66 1008.87 1008.79 1008.54 1008.18 1007.70 1007.07 1006.38 1005.57 1006.30 1007.08 1007.75 1008.29 1008.68 1009.10 1009.49 1009.96 1010.38 1010.92 1011.53 1011.93 1012.30 1012.12 1012.43 1012.69 1012.59 1012.44 1012.16 1011.87 1011.56
1010.15 1010.09 1009.80 1009.72 1008.97 1008.68 1008.45 1008.29 1008.86 1008.44 1008.23 1007.87 1008.20 1008.68 1009.09 1009.24 1009.14 1008.84 1008.22 1007.80 1007.29 1006.69 1006.51 1006.67 1007.35 1008.33 1008.71 1009.17 1009.52 1009.93 1010.42 1010.88 1011.54 1011.84 1012.02 1012.42 1012.38 1012.20 1012.78 1012.48 1012.05 1011.76 1011.74 1011.75
1011.70 1011.48 1010.84 1010.11 1009.69 1009.05 1008.64 1008.66 1008.92 1009.11 1009.14 1009.16 1009.09 1009.16 1009.31 1009.32 1009.15 1008.89 1008.32 1008.05 1007.69 1007.03 1006.89 1006.94 1007.63 1008.65 1009.40 1009.83 1010.16 1010.46 1010.76 1011.20 1011.52 1011.76 1012.05 1012.09 1011.52 1012.33 1011.93 1011.93 1011.66 1011.45 1011.44 1011.91
1012.13 1011.64 1011.32 1010.31 1010.38 1010.13 1009.85 1009.67 1009.70 1009.82 1009.78 1009.68 1009.51 1009.23 1009.27 1009.14 1008.81 1008.58 1008.40 1008.16 1007.80 1007.03 1006.86 1007.28 1007.84 1008.97 1009.70 1010.11 1010.51 1010.70 1011.00 1011.33 1011.79 1012.16 1012.58 1012.39 1012.08 1011.69 1011.68 1011.63 1011.36 1011.43 1011.82 1012.88
Wind_Speed
14 11 12 15 16 16 19 13 15 15 10 8 8 12 15 17 16 16 13 12 12 13 19 18 19 17 16 15 11 13 12 10 8 9 9 7 7 5 4 4 9 7 2 4
12 13 15 17 14 15 12 11 14 15 13 11 12 16 18 15 18 19 16 15 14 11 7 19 15 15 14 13 13 11 10 10 8 6 6 6 6 6 4 8 6 5 5 4
15 13 1 9 11 10 12 13 15 16 16 13 11 17 19 19 18 16 17 10 7 6 10 18 15 12 10 9 8 9 7 7 8 5 4 2 2 4 5 7 5 4 4 3
14 13 13 8 12 10 15 14 16 15 9 13 18 15 14 14 18 15 8 14 10 8 9 15 14 9 6 6 5 6 7 4 6 6 6 6 5 5 4 7 6 5 5 4
15 14 11 13 11 12 13 16 15 13 13 16 17 13 14 13 10 11 9 10 9 9 10 14 14 12 11 9 9 7 8 7 7 7 6 6 5 4 5 6 10 8 5 4
17 17 8 11 11 13 12 14 12 13 13 14 18 16 14 15 7 10 5 8 10 4 4 9 15 13 12 12 10 8 7 7 6 7 5 8 7 6 8 8 6 5 6 4
18 18 16 11 11 12 8 10 9 12 12 13 17 16 13 12 5 1 2 4 8 11 7 11 11 6 7 9 10 10 8 6 6 8 6 7 4 7 9 8 6 7 5 5
12 11 19 15 13 11 11 9 8 15 14 16 20 4 4 1 6 4 4 4 5 9 5 10 18 13 12 11 11 11 10 6 5 6 6 5 6 4 6 5 4 2 2 6
13 12 4 2 7 11 12 13 15 13 12 14 14 20 2 9 6 3 5 10 2 8 4 4 14 10 9 11 11 13 13 9 5 6 6 5 5 7 5 6 4 3 3 5
7 13 14 4 3 11 14 11 12 8 11 15 13 15 10 20 14 0 1 5 5 4 8 5 14 9 7 10 10 11 14 13 9 7 7 7 5 7 7 6 3 4 5 2
10 10 15 17 11 10 8 12 10 11 8 11 10 4 12 9 11 7 9 9 12 4 11 7 9 11 9 11 12 9 13 13 10 8 8 7 5 6 6 5 4 4 4 3
7 6 10 15 18 16 13 13 10 8 9 10 11 13 14 7 7 7 11 13 13 14 3 10 10 12 10 11 11 9 8 10 10 8 7 7 6 6 5 4 4 4 4 5
11 4 9 15 14 16 16 15 11 9 7 12 13 11 14 12 14 11 9 12 15 13 13 5 10 11 9 9 8 10 8 8 9 9 8 6 6 6 5 5 5 4 4 4
4 8 11 12 19 17 12 12 13 11 10 12 13 17 15 8 10 25 11 12 14 14 12 6 10 11 9 10 10 9 8 8 9 8 8 7 6 6 6 5 4 4 4 4
5 10 15 18 22 24 22 21 18 18 16 14 14 17 16 13 10 14 14 13 14 13 13 8 12 12 11 9 9 8 8 8 9 9 7 6 6 6 4 4 4 5 2 3
7 11 13 19 21 24 26 23 21 20 21 21 20 19 16 16 14 15 15 12 14 15 20 23 14 13 13 12 11 9 10 8 8 7 6 8 8 6 5 4 5 3 4 3
9 7 11 17 18 22 24 18 21 22 22 23 20 16 16 16 14 12 12 14 15 16 17 20 7 12 11 12 12 9 9 9 8 7 8 7 6 6 5 5 5 2 2 3
10 10 9 14 15 24 14 19 20 19 21 19 19 14 11 10 16 20 19 15 15 16 17 17 14 11 11 13 11 11 11 10 8 7 7 7 7 6 5 4 3 2 3 4
15 12 10 12 15 20 21 19 21 18 15 13 10 10 11 13 6 18 19 18 16 13 13 14 16 10 12 13 14 14 10 9 8 8 6 7 6 6 4 4 2 2 3 4
17 14 11 13 16 17 14 11 20 16 6 17 14 12 15 14 9 13 18 18 16 14 12 11 15 9 13 13 14 14 10 8 8 7 5 3 2 1 0 2 3 3 4 5
8 8 14 12 13 14 14 21 11 10 4 9 12 11 11 9 9 13 14 16 18 13 12 10 8 10 11 11 12 10 10 7 6 3 5 1 5 2 0 1 2 3 4 5
14 10 10 9 13 17 15 17 16 6 4 6 10 8 8 9 12 14 14 16 18 18 8 11 7 10 9 9 10 6 7 6 6 6 3 5 3 3 3 2 2 5 6 7
14 12 9 7 5 18 15 13 10 5 5 7 8 11 10 12 14 15 13 13 14 18 6 11 7 9 7 5 4 6 7 9 7 4 5 3 2 2 3 3 5 6 6 4
13 11 6 13 14 14 11 4 10 16 16 13 6 9 11 13 15 15 13 12 12 15 9 8 10 9 8 5 7 9 9 8 6 5 5 1 2 3 4 4 6 3 4 3
12 14 12 17 16 16 14 12 15 18 18 17 17 15 15 16 16 16 13 12 14 14 5 8 8 7 7 10 7 8 9 7 5 5 4 3 3 5 5 6 5 3 2 5
12 13 11 13 16 17 16 18 22 19 18 18 18 19 18 18 17 16 13 12 14 15 7 9 11 12 10 9 7 7 7 6 5 4 2 1 3 2 4 3 4 2 6 16
Wind_Direction
219 240 243 242 237 254 291 311 309 315 340 323 299 293 296 294 288 278 267 242 223 260 193 176 176 173 171 176 172 183 179 188 164 167 178 211 194 177 193 114 101 106 184 164
256 231 251 268 255 277 282 291 278 286 282 279 292 293 288 268 261 256 261 266 254 232 195 167 165 165 164 171 179 176 177 172 188 179 181 191 196 169 160 112 125 137 150 208
243 260 230 280 290 287 271 270 283 293 309 308 278 270 262 256 256 259 259 256 288 294 284 146 156 158 147 156 158 167 180 170 174 183 174 133 135 105 121 117 131 154 159 172
261 250 271 237 276 264 273 255 254 267 293 279 281 291 274 260 220 227 230 233 208 222 159 144 142 138 148 174 177 166 162 183 169 187 179 166 191 165 156 144 157 153 147 206
261 255 242 276 248 266 266 286 303 312 295 282 279 273 279 290 202 200 232 236 128 162 137 142 162 167 178 189 195 166 160 180 180 188 223 156 200 189 148 107 124 140 165 207
267 282 288 264 283 256 258 280 275 282 268 265 262 255 272 279 308 214 163 123 114 143 162 170 158 165 177 186 172 153 155 163 193 179 195 168 202 155 131 128 146 161 160 174
248 239 242 235 263 267 255 267 261 257 234 244 244 236 243 265 47 64 8 51 146 171 190 159 130 126 140 182 182 158 160 164 155 171 184 182 164 125 124 136 179 182 164 172
290 287 211 208 219 267 244 246 257 303 305 324 320 255 249 50 336 5 3 3 308 298 316 200 153 161 185 201 183 172 123 113 130 111 111 110 112 126 131 169 152 166 112 108
282 287 82 12 301 211 250 263 263 269 290 290 292 297 4 312 206 271 279 261 193 242 188 332 113 146 179 186 160 137 134 134 140 138 128 124 158 163 148 106 99 113 74 136
304 301 307 257 178 253 266 278 264 234 258 271 271 287 29 29 3 172 305 34 340 313 106 133 138 147 182 167 151 141 153 154 166 160 150 165 160 109 114 119 203 127 102 91
303 291 281 293 239 256 232 224 236 273 301 310 310 348 36 43 185 248 332 344 331 336 143 158 155 144 189 156 153 155 141 153 158 172 170 152 146 133 130 146 164 149 162 190
313 297 276 270 291 290 242 273 273 228 247 240 257 275 302 318 314 360 340 324 311 341 169 153 157 153 186 167 158 161 151 158 163 167 157 149 155 135 149 174 175 171 179 221
346 256 259 263 246 251 266 270 264 276 282 285 289 295 308 323 317 309 327 352 336 328 306 136 148 157 190 160 162 153 161 162 163 161 148 156 143 152 174 200 187 174 215 235
358 290 285 284 296 324 305 301 299 254 267 262 247 261 274 15 356 306 354 341 321 308 307 179 149 147 189 166 170 161 155 170 154 155 161 150 169 176 194 188 187 202 225 256
229 274 281 278 285 291 287 282 280 287 290 284 286 297 306 317 315 322 319 295 285 343 313 187 151 155 172 167 158 147 150 174 154 165 151 161 183 207 187 191 206 223 243 272
226 269 279 281 283 280 279 282 285 280 279 275 277 277 286 291 285 280 287 11 10 358 342 341 157 162 174 155 150 157 163 155 141 151 170 183 183 195 194 193 227 222 239 279
309 284 291 275 288 284 269 272 269 269 267 270 273 284 289 287 297 293 45 34 11 1 351 342 170 165 158 152 147 153 138 127 146 166 200 189 182 202 191 209 228 236 302 304
263 269 278 277 278 268 280 280 283 279 276 274 276 302 309 52 59 44 32 21 17 2 352 339 332 142 142 137 137 117 121 136 163 199 201 187 190 214 187 207 232 235 247 267
233 248 262 258 261 272 280 289 294 297 294 298 340 345 349 10 6 50 17 9 4 10 346 339 330 133 129 131 122 121 131 149 182 200 209 198 180 203 182 220 229 317 297 313
220 212 239 259 273 278 289 297 346 325 258 22 15 22 13 353 311 28 354 358 352 349 348 345 324 86 106 122 122 125 142 161 199 201 227 84 217 204 77 19 11 351 310 289
201 233 225 239 253 273 279 295 332 283 39 12 10 5 30 10 351 338 349 347 337 341 352 334 4 101 115 120 124 135 151 169 194 147 80 149 90 59 297 67 287 306 296 290
274 263 230 240 253 267 301 280 313 50 15 358 349 2 1 346 339 338 341 337 324 327 359 77 85 107 111 120 128 134 148 129 100 83 110 79 106 317 59 27 307 269 259 260
253 249 267 285 276 310 314 321 332 315 306 333 358 356 349 334 325 325 324 315 321 315 321 113 112 117 115 119 125 115 100 99 94 110 100 129 100 11 342 282 257 263 272 274
286 303 292 287 278 276 285 332 320 312 333 339 354 327 332 322 319 312 306 318 317 309 86 133 132 144 134 107 97 109 110 110 111 127 131 145 53 59 280 276 276 332 315 327
290 319 306 294 299 301 301 324 331 335 336 335 331 326 315 306 305 308 314 320 304 300 152 138 135 124 105 103 103 119 126 136 139 140 161 188 165 212 249 250 258 283 12 32
274 284 281 284 308 305 306 315 314 317 313 309 302 298 298 297 296 296 310 311 306 301 156 146 132 119 126 122 128 129 141 138 135 143 221 221 332 305 291 297 349 210 85 87